DAL104 SBGR-KATL

Flight info

Callsign DAL104
Flight time N/A
Altitude 34000
Route GERTU UL304 OPNUS UM417 KONKI UL304 KOSMU UM417 CBC UL304 BODLO Y298 VENDS Y185 MANLE Q89 CULTO DCT LEMKE
Aircraft A333/H-DGVW/C

Departure

Time N/A
Airport São Paulo/Guarulhos–Governor André Franco Montoro International Airport (SBGR)

Arrival

Time 2026-05-05 10:00
Airport Hartsfield Jackson Atlanta International Airport (KATL)
Time Latitude Longitude Altitude Speed Heading
2026-05-05 04:20 -2.65338 -59.33213 33978 ft 505 kts 336°
2026-05-05 04:20 -2.62139 -59.34668 33975 ft 505 kts 336°
2026-05-05 04:21 -2.55734 -59.37582 33978 ft 507 kts 336°
2026-05-05 04:21 -2.49306 -59.40506 33977 ft 507 kts 336°
2026-05-05 04:22 -2.42880 -59.43428 33977 ft 507 kts 336°
2026-05-05 04:22 -2.36453 -59.46351 33978 ft 507 kts 336°
2026-05-05 04:23 -2.30073 -59.49251 33977 ft 507 kts 336°
2026-05-05 04:23 -2.23642 -59.52175 33977 ft 508 kts 336°
2026-05-05 04:24 -2.17208 -59.55099 33977 ft 508 kts 336°
2026-05-05 04:25 -2.07558 -59.59486 33974 ft 508 kts 336°
2026-05-05 04:25 -2.01123 -59.62410 33973 ft 507 kts 336°
2026-05-05 04:26 -1.94700 -59.65329 33977 ft 507 kts 336°
2026-05-05 04:26 -1.88288 -59.68243 33977 ft 506 kts 336°
2026-05-05 04:27 -1.81880 -59.71155 33976 ft 506 kts 336°
2026-05-05 04:27 -1.75475 -59.74064 33974 ft 506 kts 336°
2026-05-05 04:28 -1.69072 -59.76973 33973 ft 506 kts 336°
2026-05-05 04:28 -1.62660 -59.79886 33974 ft 506 kts 336°
2026-05-05 04:29 -1.56246 -59.82800 33972 ft 507 kts 336°
2026-05-05 04:29 -1.49817 -59.85721 33970 ft 507 kts 336°
2026-05-05 04:30 -1.43388 -59.88642 33974 ft 507 kts 336°
2026-05-05 04:30 -1.36960 -59.91563 33975 ft 508 kts 336°
2026-05-05 04:31 -1.30533 -59.94482 33975 ft 508 kts 336°
2026-05-05 04:31 -1.24084 -59.97411 33974 ft 510 kts 336°
2026-05-05 04:32 -1.17626 -60.00345 33971 ft 510 kts 336°
2026-05-05 04:32 -1.11168 -60.03279 33971 ft 510 kts 336°
2026-05-05 04:33 -1.04711 -60.06212 33971 ft 510 kts 336°
2026-05-05 04:33 -0.98294 -60.09127 33971 ft 510 kts 336°
2026-05-05 04:34 -0.91823 -60.12063 33973 ft 512 kts 336°
2026-05-05 04:34 -0.85339 -60.15005 33971 ft 512 kts 336°
2026-05-05 04:35 -0.78847 -60.17951 33968 ft 512 kts 336°
2026-05-05 04:35 -0.72353 -60.20898 33972 ft 512 kts 336°
2026-05-05 04:36 -0.65879 -60.23835 33973 ft 512 kts 336°
2026-05-05 04:36 -0.59390 -60.26780 33971 ft 513 kts 336°
2026-05-05 04:37 -0.52892 -60.29728 33971 ft 513 kts 336°
2026-05-05 04:37 -0.46390 -60.32678 33971 ft 513 kts 336°
2026-05-05 04:38 -0.39899 -60.35624 33969 ft 513 kts 336°
2026-05-05 04:38 -0.33404 -60.38572 33968 ft 513 kts 336°
2026-05-05 04:39 -0.26907 -60.41521 33971 ft 513 kts 336°
2026-05-05 04:39 -0.20413 -60.44469 33972 ft 513 kts 336°
2026-05-05 04:40 -0.13959 -60.47398 33972 ft 512 kts 336°
2026-05-05 04:40 -0.07483 -60.50338 33971 ft 511 kts 336°
2026-05-05 04:41 -0.01006 -60.53278 33975 ft 511 kts 336°
2026-05-05 04:41 0.05459 -60.56212 33971 ft 510 kts 336°
2026-05-05 04:42 0.11915 -60.59143 33969 ft 509 kts 336°
2026-05-05 04:42 0.18366 -60.62071 33969 ft 509 kts 336°
2026-05-05 04:43 0.24816 -60.64999 33969 ft 509 kts 336°
2026-05-05 04:43 0.31271 -60.67929 33966 ft 509 kts 336°
2026-05-05 04:44 0.37720 -60.70856 33966 ft 509 kts 336°
2026-05-05 04:44 0.44164 -60.73781 33966 ft 509 kts 336°
2026-05-05 04:45 0.50609 -60.76707 33968 ft 508 kts 336°
2026-05-05 04:45 0.57039 -60.79626 33969 ft 507 kts 336°
2026-05-05 04:46 0.63468 -60.82544 33966 ft 507 kts 336°
2026-05-05 04:46 0.69897 -60.85463 33966 ft 508 kts 336°
2026-05-05 04:47 0.76329 -60.88383 33965 ft 508 kts 336°
2026-05-05 04:47 0.81675 -60.90810 33966 ft 508 kts 336°
2026-05-05 04:48 0.88109 -60.93731 33969 ft 508 kts 336°
2026-05-05 04:48 0.95586 -60.97126 33969 ft 508 kts 336°
2026-05-05 04:49 1.02015 -61.00045 33968 ft 508 kts 336°
2026-05-05 04:49 1.07413 -61.02496 33969 ft 509 kts 336°
2026-05-05 04:50 1.13874 -61.05430 33969 ft 510 kts 336°
2026-05-05 04:50 1.20348 -61.08369 33968 ft 511 kts 336°
2026-05-05 04:51 1.26817 -61.11307 33968 ft 511 kts 336°
2026-05-05 04:51 1.33248 -61.14228 33965 ft 510 kts 336°
2026-05-05 04:52 1.39704 -61.17160 33963 ft 510 kts 336°
2026-05-05 04:52 1.46160 -61.20092 33963 ft 509 kts 336°
2026-05-05 04:53 1.52617 -61.23026 33966 ft 510 kts 336°
2026-05-05 04:53 1.59071 -61.25958 33966 ft 510 kts 336°
2026-05-05 04:54 1.65530 -61.28892 33966 ft 510 kts 336°
2026-05-05 04:54 1.71981 -61.31823 33966 ft 509 kts 335°
2026-05-05 04:55 1.78435 -61.34755 33966 ft 509 kts 335°
2026-05-05 04:55 1.84890 -61.37689 33966 ft 510 kts 335°
2026-05-05 04:56 1.91349 -61.40624 33963 ft 510 kts 335°
2026-05-05 04:56 1.97807 -61.43559 33963 ft 510 kts 335°
2026-05-05 04:57 2.04272 -61.46498 33965 ft 510 kts 335°
2026-05-05 04:57 2.10721 -61.49429 33966 ft 509 kts 335°
2026-05-05 04:58 2.17177 -61.52364 33965 ft 509 kts 335°
2026-05-05 04:58 2.23626 -61.55296 33966 ft 509 kts 335°
2026-05-05 04:59 2.30086 -61.58233 33966 ft 509 kts 335°
2026-05-05 04:59 2.36536 -61.61166 33966 ft 509 kts 336°
2026-05-05 05:00 2.42981 -61.64097 33968 ft 509 kts 336°
2026-05-05 05:00 2.49435 -61.67032 33969 ft 509 kts 336°
2026-05-05 05:01 2.55884 -61.69966 33971 ft 509 kts 336°
2026-05-05 05:01 2.62339 -61.72903 33968 ft 509 kts 336°
2026-05-05 05:02 2.68786 -61.75836 33968 ft 509 kts 336°
2026-05-05 05:02 2.75227 -61.78767 33971 ft 508 kts 336°
2026-05-05 05:03 2.81661 -61.81696 33968 ft 508 kts 336°
2026-05-05 05:03 2.88093 -61.84622 33969 ft 508 kts 336°
2026-05-05 05:04 2.94526 -61.87550 33971 ft 508 kts 336°
2026-05-05 05:04 3.00913 -61.90456 33971 ft 508 kts 336°
2026-05-05 05:05 3.07343 -61.93383 33971 ft 508 kts 336°
2026-05-05 05:05 3.13780 -61.96314 33974 ft 508 kts 336°
2026-05-05 05:06 3.20223 -61.99248 33976 ft 509 kts 336°
2026-05-05 05:06 3.26663 -62.02180 33974 ft 509 kts 336°
2026-05-05 05:07 3.33100 -62.05112 33974 ft 509 kts 336°
2026-05-05 05:07 3.39543 -62.08047 33973 ft 509 kts 336°
2026-05-05 05:08 3.45986 -62.10982 33978 ft 509 kts 336°
2026-05-05 05:08 3.52431 -62.13919 33977 ft 509 kts 336°
2026-05-05 05:09 3.58877 -62.16857 33979 ft 509 kts 336°
2026-05-05 05:09 3.65319 -62.19793 33980 ft 509 kts 336°
2026-05-05 05:10 3.71763 -62.22731 33977 ft 509 kts 336°
2026-05-05 05:10 3.78175 -62.25655 33982 ft 504 kts 336°
2026-05-05 05:11 3.84538 -62.28557 33982 ft 502 kts 336°
2026-05-05 05:11 3.90849 -62.31435 33988 ft 502 kts 336°
2026-05-05 05:12 3.97206 -62.34335 33988 ft 502 kts 336°
2026-05-05 05:12 4.03568 -62.37237 33988 ft 502 kts 336°
2026-05-05 05:13 4.09937 -62.40144 33990 ft 505 kts 336°
2026-05-05 05:13 4.16361 -62.43076 33994 ft 508 kts 336°
2026-05-05 05:14 4.22665 -62.46295 33997 ft 509 kts 331°
2026-05-05 05:14 4.28819 -62.49789 33996 ft 509 kts 330°
2026-05-05 05:15 4.34972 -62.53302 33996 ft 509 kts 331°
2026-05-05 05:15 4.41142 -62.56777 33995 ft 509 kts 331°
2026-05-05 05:16 4.47325 -62.60234 33991 ft 509 kts 331°
2026-05-05 05:16 4.53520 -62.63691 33990 ft 510 kts 331°
2026-05-05 05:17 4.59675 -62.67128 33989 ft 510 kts 331°
2026-05-05 05:17 4.65867 -62.70588 33987 ft 509 kts 331°
2026-05-05 05:18 4.72056 -62.74048 33984 ft 509 kts 331°
2026-05-05 05:18 4.78245 -62.77509 33979 ft 509 kts 331°
2026-05-05 05:19 4.84423 -62.80964 33977 ft 508 kts 331°
2026-05-05 05:19 4.90599 -62.84419 33978 ft 508 kts 331°
2026-05-05 05:20 4.96781 -62.87878 33977 ft 509 kts 331°
2026-05-05 05:20 5.02958 -62.91334 33974 ft 509 kts 331°
2026-05-05 05:21 5.09143 -62.94796 33969 ft 509 kts 330°
2026-05-05 05:21 5.15305 -62.98246 33974 ft 506 kts 330°
2026-05-05 05:22 5.21458 -63.01691 33971 ft 506 kts 330°
2026-05-05 05:22 5.27599 -63.05131 33971 ft 506 kts 330°
2026-05-05 05:23 5.33745 -63.08574 33975 ft 506 kts 330°
2026-05-05 05:23 5.39890 -63.12018 33974 ft 506 kts 330°
2026-05-05 05:24 5.46036 -63.15463 33977 ft 505 kts 330°
2026-05-05 05:24 5.52155 -63.18893 33977 ft 503 kts 330°
2026-05-05 05:25 5.58264 -63.22319 33980 ft 503 kts 330°
2026-05-05 05:25 5.64375 -63.25746 33982 ft 503 kts 330°
2026-05-05 05:26 5.70485 -63.29175 33982 ft 503 kts 330°
2026-05-05 05:26 5.76552 -63.32579 33982 ft 503 kts 330°
2026-05-05 05:27 5.82653 -63.36004 33983 ft 501 kts 330°
2026-05-05 05:27 5.91757 -63.41116 33988 ft 500 kts 330°
2026-05-05 05:28 5.97829 -63.44526 33990 ft 499 kts 330°
2026-05-05 05:28 6.03869 -63.47919 33983 ft 496 kts 330°
2026-05-05 05:29 6.09887 -63.51301 33982 ft 495 kts 330°
2026-05-05 05:29 6.15901 -63.54681 33978 ft 494 kts 330°
2026-05-05 05:30 6.21884 -63.58045 33976 ft 491 kts 330°
2026-05-05 05:30 6.27839 -63.61395 33972 ft 491 kts 330°
2026-05-05 05:31 6.33760 -63.64726 33969 ft 491 kts 330°
2026-05-05 05:31 6.39719 -63.68079 33969 ft 491 kts 330°
2026-05-05 05:32 6.45686 -63.71437 33966 ft 491 kts 330°
2026-05-05 05:32 6.51647 -63.74793 33968 ft 491 kts 330°
2026-05-05 05:33 6.57638 -63.78167 33969 ft 495 kts 330°
2026-05-05 05:33 6.63654 -63.81556 33968 ft 496 kts 330°
2026-05-05 05:34 6.69671 -63.84947 33969 ft 496 kts 330°
2026-05-05 05:34 6.75688 -63.88338 33969 ft 496 kts 330°
2026-05-05 05:35 6.81710 -63.91733 33970 ft 496 kts 330°
2026-05-05 05:35 6.87718 -63.95121 33966 ft 495 kts 330°
2026-05-05 05:36 6.93722 -63.98508 33967 ft 494 kts 330°
2026-05-05 05:36 6.99720 -64.01893 33965 ft 494 kts 330°
2026-05-05 05:37 7.05714 -64.05276 33964 ft 494 kts 330°
2026-05-05 05:37 7.11690 -64.08651 33964 ft 497 kts 330°
2026-05-05 05:38 7.17733 -64.12064 33962 ft 498 kts 330°
2026-05-05 05:38 7.23765 -64.15471 33959 ft 495 kts 329°
2026-05-05 05:39 7.29752 -64.18855 33959 ft 493 kts 329°
2026-05-05 05:39 7.35741 -64.22236 33959 ft 493 kts 329°
2026-05-05 05:40 7.41721 -64.25609 33953 ft 493 kts 329°
2026-05-05 05:40 7.46704 -64.28421 33956 ft 493 kts 329°
2026-05-05 05:41 7.53699 -64.32370 33953 ft 493 kts 329°
2026-05-05 05:41 7.58665 -64.35175 33953 ft 490 kts 329°
2026-05-05 05:42 7.64613 -64.38536 33950 ft 491 kts 329°
2026-05-05 05:42 7.70575 -64.41906 33948 ft 492 kts 329°
2026-05-05 05:43 7.76542 -64.45280 33953 ft 492 kts 329°
2026-05-05 05:43 7.82509 -64.48654 33950 ft 492 kts 329°
2026-05-05 05:44 7.88474 -64.52028 33954 ft 492 kts 329°
2026-05-05 05:44 7.94439 -64.55404 33949 ft 492 kts 329°
2026-05-05 05:45 8.00362 -64.58757 33949 ft 492 kts 329°
2026-05-05 05:45 8.06328 -64.62136 33949 ft 492 kts 329°
2026-05-05 05:46 8.12294 -64.65516 33952 ft 492 kts 329°
2026-05-05 05:46 8.18256 -64.68894 33952 ft 492 kts 329°
2026-05-05 05:47 8.24223 -64.72277 33959 ft 492 kts 329°
2026-05-05 05:47 8.30190 -64.75660 33953 ft 493 kts 329°
2026-05-05 05:48 8.36172 -64.79054 33953 ft 493 kts 329°
2026-05-05 05:48 8.42149 -64.82446 33951 ft 493 kts 329°
2026-05-05 05:49 8.48126 -64.85839 33954 ft 493 kts 329°
2026-05-05 05:49 8.54105 -64.89234 33960 ft 493 kts 329°
2026-05-05 05:50 8.60086 -64.92632 33955 ft 493 kts 328°
2026-05-05 05:50 8.66056 -64.96025 33957 ft 492 kts 328°
2026-05-05 05:51 8.72035 -64.99425 33953 ft 494 kts 329°
2026-05-05 05:51 8.77986 -65.02809 33954 ft 494 kts 329°
2026-05-05 05:52 8.83981 -65.06220 33957 ft 495 kts 329°
2026-05-05 05:52 8.89977 -65.09632 33958 ft 495 kts 329°
2026-05-05 05:53 8.95973 -65.13046 33959 ft 494 kts 329°
2026-05-05 05:53 9.01966 -65.16459 33958 ft 494 kts 329°
2026-05-05 05:54 9.07959 -65.19873 33958 ft 494 kts 329°
2026-05-05 05:54 9.13948 -65.23285 33957 ft 494 kts 329°
2026-05-05 05:55 9.19937 -65.26700 33958 ft 494 kts 329°
2026-05-05 05:55 9.25927 -65.30117 33955 ft 494 kts 329°
2026-05-05 05:56 9.31920 -65.33537 33959 ft 495 kts 329°
2026-05-05 05:56 9.37924 -65.36964 33957 ft 495 kts 329°
2026-05-05 05:57 9.43926 -65.40391 33958 ft 495 kts 329°
2026-05-05 05:57 9.49928 -65.43820 33960 ft 495 kts 329°
2026-05-05 05:58 9.55892 -65.47228 33960 ft 495 kts 329°
2026-05-05 05:58 9.61892 -65.50659 33961 ft 495 kts 329°
2026-05-05 05:59 9.67896 -65.54085 33966 ft 494 kts 329°
2026-05-05 05:59 9.73891 -65.57484 33966 ft 493 kts 330°
2026-05-05 06:00 9.79884 -65.60881 33974 ft 493 kts 329°
2026-05-05 06:00 9.85868 -65.64276 33976 ft 492 kts 330°
2026-05-05 06:01 9.91844 -65.67669 33977 ft 492 kts 330°
2026-05-05 06:01 9.97816 -65.71062 33974 ft 492 kts 330°
2026-05-05 06:02 10.03792 -65.74458 33976 ft 492 kts 330°
2026-05-05 06:02 10.09761 -65.77854 33977 ft 492 kts 330°
2026-05-05 06:03 10.15742 -65.81259 33978 ft 492 kts 330°
2026-05-05 06:03 10.21714 -65.84661 33976 ft 492 kts 330°
2026-05-05 06:04 10.27684 -65.88063 33977 ft 492 kts 330°
2026-05-05 06:04 10.33662 -65.91471 33979 ft 492 kts 330°
2026-05-05 06:05 10.39618 -65.94868 33973 ft 490 kts 330°
2026-05-05 06:05 10.45551 -65.98253 33974 ft 489 kts 330°
2026-05-05 06:06 10.51476 -66.01635 33974 ft 489 kts 330°
2026-05-05 06:06 10.57397 -66.05033 33974 ft 488 kts 328°
2026-05-05 06:07 10.63115 -66.08756 33971 ft 488 kts 325°
2026-05-05 06:07 10.68682 -66.12626 33974 ft 488 kts 325°
2026-05-05 06:08 10.74284 -66.16512 33977 ft 487 kts 325°
2026-05-05 06:08 10.79895 -66.20360 33971 ft 486 kts 325°
2026-05-05 06:09 10.85491 -66.24221 33971 ft 486 kts 325°
2026-05-05 06:09 10.91055 -66.28132 33971 ft 486 kts 325°
2026-05-05 06:10 10.96617 -66.32054 33966 ft 487 kts 325°
2026-05-05 06:10 11.02188 -66.35978 33966 ft 487 kts 325°
2026-05-05 06:11 11.07757 -66.39894 33967 ft 486 kts 325°
2026-05-05 06:11 11.13316 -66.43802 33964 ft 485 kts 325°
2026-05-05 06:12 11.18862 -66.47697 33960 ft 484 kts 325°
2026-05-05 06:12 11.24411 -66.51582 33961 ft 484 kts 325°
2026-05-05 06:13 11.29964 -66.55470 33964 ft 484 kts 325°
2026-05-05 06:13 11.35519 -66.59363 33963 ft 484 kts 325°
2026-05-05 06:14 11.41074 -66.63258 33962 ft 485 kts 325°
2026-05-05 06:14 11.46618 -66.67149 33966 ft 484 kts 326°
2026-05-05 06:15 11.52167 -66.71044 33963 ft 484 kts 326°
2026-05-05 06:15 11.57705 -66.74933 33963 ft 483 kts 326°
2026-05-05 06:16 11.63254 -66.78822 33969 ft 484 kts 326°
2026-05-05 06:16 11.68769 -66.82683 33966 ft 483 kts 326°
2026-05-05 06:17 11.74319 -66.86572 33967 ft 485 kts 326°
2026-05-05 06:17 11.79870 -66.90463 33967 ft 484 kts 326°
2026-05-05 06:18 11.85429 -66.94353 33964 ft 485 kts 326°
2026-05-05 06:18 11.90987 -66.98244 33965 ft 483 kts 326°
2026-05-05 06:19 11.96540 -67.02133 33973 ft 485 kts 326°
2026-05-05 06:19 12.02094 -67.06021 33966 ft 483 kts 326°
2026-05-05 06:20 12.07653 -67.09909 33971 ft 485 kts 326°
2026-05-05 06:20 12.13218 -67.13803 33969 ft 484 kts 326°
2026-05-05 06:21 12.18773 -67.17692 33969 ft 485 kts 326°
2026-05-05 06:21 12.24338 -67.21591 33972 ft 483 kts 326°
2026-05-05 06:22 12.29883 -67.25477 33972 ft 485 kts 325°
2026-05-05 06:22 12.35445 -67.29378 33970 ft 483 kts 325°
2026-05-05 06:23 12.40988 -67.33267 33973 ft 485 kts 326°
2026-05-05 06:23 12.46557 -67.37177 33972 ft 485 kts 326°
2026-05-05 06:24 12.52116 -67.41081 33972 ft 485 kts 326°
2026-05-05 06:24 12.57686 -67.44996 33973 ft 485 kts 326°
2026-05-05 06:25 12.63241 -67.48902 33971 ft 485 kts 326°
2026-05-05 06:25 12.68762 -67.52787 33976 ft 485 kts 326°
2026-05-05 06:26 12.74358 -67.56725 33971 ft 485 kts 325°
2026-05-05 06:26 12.79935 -67.60653 33977 ft 486 kts 325°
2026-05-05 06:27 12.88246 -67.66512 33978 ft 487 kts 325°
2026-05-05 06:28 12.92915 -67.69814 33978 ft 485 kts 325°
2026-05-05 06:28 12.99376 -67.74392 33975 ft 487 kts 325°
2026-05-05 06:29 13.04944 -67.78341 33977 ft 485 kts 325°
2026-05-05 06:29 13.10505 -67.82288 33978 ft 488 kts 325°
2026-05-05 06:30 13.16070 -67.86247 33977 ft 486 kts 325°
2026-05-05 06:30 13.20691 -67.89536 33977 ft 487 kts 325°
2026-05-05 06:31 13.26259 -67.93503 33978 ft 486 kts 325°
2026-05-05 06:31 13.31806 -67.97461 33978 ft 486 kts 325°
2026-05-05 06:32 13.37370 -68.01434 33979 ft 486 kts 325°
2026-05-05 06:32 13.42917 -68.05398 33981 ft 487 kts 325°
2026-05-05 06:33 13.48484 -68.09378 33977 ft 487 kts 325°
2026-05-05 06:33 13.54043 -68.13355 33978 ft 487 kts 325°
2026-05-05 06:34 13.59606 -68.17336 33983 ft 487 kts 325°
2026-05-05 06:34 13.65163 -68.21316 33982 ft 487 kts 325°
2026-05-05 06:35 13.70732 -68.25308 33981 ft 488 kts 325°
2026-05-05 06:35 13.76299 -68.29299 33981 ft 488 kts 325°
2026-05-05 06:36 13.81875 -68.33299 33983 ft 488 kts 325°
2026-05-05 06:36 13.87455 -68.37274 33982 ft 489 kts 325°
2026-05-05 06:37 13.93062 -68.41243 35363 ft 488 kts 325°
2026-05-05 06:37 13.95867 -68.43231 35152 ft 491 kts 325°
2026-05-05 06:37 13.98682 -68.45241 34906 ft 494 kts 324°
2026-05-05 06:37 14.01511 -68.47273 34657 ft 498 kts 324°
2026-05-05 06:38 14.04356 -68.49324 34408 ft 501 kts 324°
2026-05-05 06:38 14.07221 -68.51391 34159 ft 504 kts 324°
2026-05-05 06:38 14.10094 -68.53464 34007 ft 505 kts 324°
2026-05-05 06:39 14.15821 -68.57596 33999 ft 500 kts 324°
2026-05-05 06:39 14.21495 -68.61688 34000 ft 496 kts 324°
2026-05-05 06:40 14.27082 -68.65721 34000 ft 491 kts 324°
2026-05-05 06:40 14.32661 -68.69749 32610 ft 488 kts 324°
2026-05-05 06:40 14.35439 -68.71757 32830 ft 487 kts 324°
2026-05-05 06:41 14.38213 -68.73760 33065 ft 486 kts 324°
2026-05-05 06:41 14.40975 -68.75751 33304 ft 484 kts 324°
2026-05-05 06:41 14.43731 -68.77737 33565 ft 482 kts 324°
2026-05-05 06:41 14.46479 -68.79717 33816 ft 481 kts 324°
2026-05-05 06:42 14.49220 -68.81692 33980 ft 481 kts 324°
2026-05-05 06:42 14.54728 -68.85664 33984 ft 486 kts 324°
2026-05-05 06:43 14.60266 -68.89661 33980 ft 484 kts 324°
2026-05-05 06:43 14.65783 -68.93646 33982 ft 485 kts 324°
2026-05-05 06:44 14.71311 -68.97640 33976 ft 484 kts 324°
2026-05-05 06:44 14.76822 -69.01625 33982 ft 485 kts 324°
2026-05-05 06:45 14.82348 -69.05627 33982 ft 484 kts 324°
2026-05-05 06:45 14.87861 -69.09625 33982 ft 485 kts 324°
2026-05-05 06:46 14.93389 -69.13631 33986 ft 484 kts 324°
2026-05-05 06:46 14.98907 -69.17630 33985 ft 485 kts 324°
2026-05-05 06:47 15.04427 -69.21632 33983 ft 484 kts 324°
2026-05-05 06:47 15.09939 -69.25632 33986 ft 484 kts 324°
2026-05-05 06:48 15.15458 -69.29639 33985 ft 484 kts 324°
2026-05-05 06:48 15.20977 -69.33629 33987 ft 485 kts 324°
2026-05-05 06:49 15.26522 -69.37594 33990 ft 484 kts 324°
2026-05-05 06:49 15.32066 -69.41554 33987 ft 484 kts 324°
2026-05-05 06:50 15.37568 -69.45492 33989 ft 483 kts 324°
2026-05-05 06:50 15.43101 -69.49457 33990 ft 484 kts 324°
2026-05-05 06:51 15.48638 -69.53429 33984 ft 483 kts 324°
2026-05-05 06:51 15.53999 -69.57621 33986 ft 482 kts 316°
2026-05-05 06:52 15.58785 -69.62475 33991 ft 481 kts 314°
2026-05-05 06:52 15.63446 -69.67449 33991 ft 481 kts 313°
2026-05-05 06:53 15.68100 -69.72460 33991 ft 482 kts 313°
2026-05-05 06:53 15.72751 -69.77451 33994 ft 481 kts 313°
2026-05-05 06:54 15.77409 -69.82436 33991 ft 481 kts 313°
2026-05-05 06:54 15.82068 -69.87422 33992 ft 481 kts 313°
2026-05-05 06:55 15.86729 -69.92414 33993 ft 481 kts 313°
2026-05-05 06:55 15.91373 -69.97391 33990 ft 480 kts 313°
2026-05-05 06:56 15.96027 -70.02384 33978 ft 481 kts 313°
2026-05-05 06:56 16.00900 -70.07138 33993 ft 482 kts 322°
2026-05-05 06:57 16.06336 -70.11212 33991 ft 482 kts 324°
2026-05-05 06:57 16.11882 -70.15155 33994 ft 483 kts 324°
2026-05-05 06:58 16.17435 -70.19073 33994 ft 482 kts 324°
2026-05-05 06:58 16.22976 -70.23003 33997 ft 481 kts 324°
2026-05-05 06:59 16.28485 -70.26927 33996 ft 480 kts 324°
2026-05-05 06:59 16.33998 -70.30861 34002 ft 480 kts 324°
2026-05-05 07:00 16.39467 -70.34767 34002 ft 480 kts 324°
2026-05-05 07:00 16.44972 -70.38700 34001 ft 480 kts 323°
2026-05-05 07:01 16.50471 -70.42630 34003 ft 479 kts 323°
2026-05-05 07:01 16.55971 -70.46565 34003 ft 479 kts 323°
2026-05-05 07:02 16.61472 -70.50504 34000 ft 479 kts 323°
2026-05-05 07:02 16.66971 -70.54443 34002 ft 480 kts 323°
2026-05-05 07:03 16.72465 -70.58382 33985 ft 479 kts 323°
2026-05-05 07:03 16.77950 -70.62317 33984 ft 479 kts 323°
2026-05-05 07:04 16.83441 -70.66259 33993 ft 479 kts 323°
2026-05-05 07:04 16.88930 -70.70202 33994 ft 479 kts 323°
2026-05-05 07:05 16.94423 -70.74151 33997 ft 479 kts 323°
2026-05-05 07:05 16.99908 -70.78098 33994 ft 479 kts 323°
2026-05-05 07:06 17.05401 -70.82053 33992 ft 479 kts 323°
2026-05-05 07:06 17.10884 -70.86002 33997 ft 479 kts 323°
2026-05-05 07:07 17.16375 -70.89957 33991 ft 479 kts 323°
2026-05-05 07:07 17.21827 -70.93885 33993 ft 479 kts 323°
2026-05-05 07:08 17.27312 -70.97841 33996 ft 479 kts 323°
2026-05-05 07:08 17.32796 -71.01798 33997 ft 479 kts 323°
2026-05-05 07:09 17.38278 -71.05757 33996 ft 479 kts 323°
2026-05-05 07:09 17.43765 -71.09722 33995 ft 479 kts 323°
2026-05-05 07:10 17.49244 -71.13684 33999 ft 479 kts 323°
2026-05-05 07:10 17.54723 -71.17651 33999 ft 479 kts 323°
2026-05-05 07:11 17.60205 -71.21621 33996 ft 479 kts 323°
2026-05-05 07:11 17.65685 -71.25593 34001 ft 479 kts 323°
2026-05-05 07:12 17.71161 -71.29566 34001 ft 479 kts 323°
2026-05-05 07:12 17.76641 -71.33544 34003 ft 479 kts 323°
2026-05-05 07:13 17.82116 -71.37522 34009 ft 479 kts 323°
2026-05-05 07:13 17.87595 -71.41505 34017 ft 479 kts 322°
2026-05-05 07:14 17.93061 -71.45481 34009 ft 478 kts 322°
2026-05-05 07:14 17.98521 -71.49458 34023 ft 477 kts 322°
2026-05-05 07:15 18.03978 -71.53434 34024 ft 477 kts 322°
2026-05-05 07:15 18.09432 -71.57412 34031 ft 477 kts 322°
2026-05-05 07:16 18.14879 -71.61388 34032 ft 476 kts 322°
2026-05-05 07:16 18.20322 -71.65364 34031 ft 476 kts 322°
2026-05-05 07:17 18.25765 -71.69342 34038 ft 476 kts 322°
2026-05-05 07:17 18.31204 -71.73322 34038 ft 476 kts 322°
2026-05-05 07:18 18.35722 -71.76629 34054 ft 476 kts 322°
2026-05-05 07:18 18.42044 -71.81261 34050 ft 476 kts 322°
2026-05-05 07:19 18.46597 -71.84600 34044 ft 476 kts 322°
2026-05-05 07:19 18.52106 -71.88488 34048 ft 478 kts 326°
2026-05-05 07:20 18.57887 -71.91965 34056 ft 479 kts 327°
2026-05-05 07:20 18.63725 -71.95361 34035 ft 480 kts 327°
2026-05-05 07:21 18.69583 -71.98753 34037 ft 480 kts 327°
2026-05-05 07:21 18.75394 -72.02130 34037 ft 480 kts 327°
2026-05-05 07:22 18.81234 -72.05534 34031 ft 480 kts 327°
2026-05-05 07:22 18.87082 -72.08948 34032 ft 480 kts 327°
2026-05-05 07:23 18.92922 -72.12359 34038 ft 480 kts 327°
2026-05-05 07:23 18.98765 -72.15775 34029 ft 480 kts 327°
2026-05-05 07:24 19.04607 -72.19194 34029 ft 480 kts 327°
2026-05-05 07:24 19.10450 -72.22615 34028 ft 480 kts 327°
2026-05-05 07:25 19.16283 -72.26033 34035 ft 480 kts 327°
2026-05-05 07:25 19.22121 -72.29457 34026 ft 479 kts 327°
2026-05-05 07:26 19.27951 -72.32879 34022 ft 479 kts 326°
2026-05-05 07:26 19.33768 -72.36297 34025 ft 478 kts 326°
2026-05-05 07:27 19.39581 -72.39715 34015 ft 478 kts 326°
2026-05-05 07:27 19.45393 -72.43136 34017 ft 478 kts 326°
2026-05-05 07:28 19.51203 -72.46558 34006 ft 478 kts 326°
2026-05-05 07:28 19.57010 -72.49980 34010 ft 478 kts 326°
2026-05-05 07:29 19.62781 -72.53384 34006 ft 477 kts 326°
2026-05-05 07:29 19.68566 -72.56799 34008 ft 475 kts 326°
2026-05-05 07:30 19.74339 -72.60212 34004 ft 475 kts 326°
2026-05-05 07:30 19.82994 -72.65331 34005 ft 474 kts 326°
2026-05-05 07:31 19.88756 -72.68743 33993 ft 474 kts 326°
2026-05-05 07:31 19.94526 -72.72161 34003 ft 474 kts 326°
2026-05-05 07:32 20.00288 -72.75583 33994 ft 474 kts 325°
2026-05-05 07:32 20.05997 -72.79099 33984 ft 474 kts 324°
2026-05-05 07:33 20.11674 -72.82662 33985 ft 474 kts 324°
2026-05-05 07:33 20.17355 -72.86226 33985 ft 474 kts 324°
2026-05-05 07:34 20.23031 -72.89779 33985 ft 474 kts 324°
2026-05-05 07:34 20.28712 -72.93334 34007 ft 474 kts 324°
2026-05-05 07:35 20.34396 -72.96891 33980 ft 473 kts 323°
2026-05-05 07:35 20.40038 -73.00490 33979 ft 470 kts 320°
2026-05-05 07:36 20.45293 -73.04598 33983 ft 468 kts 317°
2026-05-05 07:36 20.50451 -73.08816 33982 ft 467 kts 317°
2026-05-05 07:37 20.55588 -73.13061 33984 ft 467 kts 317°
2026-05-05 07:37 20.60729 -73.17304 33980 ft 467 kts 317°
2026-05-05 07:38 20.65874 -73.21544 33983 ft 467 kts 317°
2026-05-05 07:38 20.71022 -73.25786 33983 ft 467 kts 317°
2026-05-05 07:39 20.76166 -73.30027 33980 ft 467 kts 317°
2026-05-05 07:39 20.81270 -73.34240 33982 ft 466 kts 316°
2026-05-05 07:40 20.86398 -73.38477 33980 ft 466 kts 316°
2026-05-05 07:40 20.91525 -73.42717 33980 ft 466 kts 316°
2026-05-05 07:41 20.96648 -73.46958 33982 ft 466 kts 316°
2026-05-05 07:41 21.01770 -73.51201 33982 ft 465 kts 316°
2026-05-05 07:42 21.06873 -73.55432 33982 ft 464 kts 316°
2026-05-05 07:42 21.11975 -73.59667 33983 ft 464 kts 316°
2026-05-05 07:43 21.17076 -73.63905 33985 ft 464 kts 316°
2026-05-05 07:43 21.22172 -73.68142 33986 ft 463 kts 316°
2026-05-05 07:44 21.27260 -73.72375 33988 ft 462 kts 316°
2026-05-05 07:44 21.32333 -73.76601 33987 ft 462 kts 316°
2026-05-05 07:45 21.37410 -73.80834 33991 ft 461 kts 316°
2026-05-05 07:45 21.42463 -73.85050 33991 ft 460 kts 316°
2026-05-05 07:46 21.47520 -73.89274 33987 ft 460 kts 316°
2026-05-05 07:46 21.52572 -73.93497 33982 ft 460 kts 316°
2026-05-05 07:47 21.57623 -73.97724 33983 ft 460 kts 316°
2026-05-05 07:47 21.62641 -74.01927 33991 ft 460 kts 316°
2026-05-05 07:48 21.67711 -74.06175 34010 ft 458 kts 316°
2026-05-05 07:48 21.72704 -74.10364 33989 ft 457 kts 316°
2026-05-05 07:49 21.77718 -74.14575 33991 ft 457 kts 316°
2026-05-05 07:49 21.82732 -74.18789 33990 ft 457 kts 316°
2026-05-05 07:50 21.87744 -74.23006 33987 ft 457 kts 316°
2026-05-05 07:50 21.92753 -74.27224 33987 ft 457 kts 316°
2026-05-05 07:51 21.97766 -74.31449 33988 ft 457 kts 316°
2026-05-05 07:51 22.02776 -74.35676 34007 ft 458 kts 316°
2026-05-05 07:52 22.07798 -74.39918 33987 ft 459 kts 317°
2026-05-05 07:52 22.12831 -74.44171 33989 ft 460 kts 317°
2026-05-05 07:53 22.17862 -74.48426 33991 ft 460 kts 317°
2026-05-05 07:53 22.22892 -74.52685 33989 ft 460 kts 317°
2026-05-05 07:54 22.27890 -74.56921 33991 ft 460 kts 317°
2026-05-05 07:54 22.32922 -74.61190 33989 ft 460 kts 317°
2026-05-05 07:55 22.37948 -74.65458 34001 ft 461 kts 317°
2026-05-05 07:55 22.43014 -74.69766 33991 ft 465 kts 317°
2026-05-05 07:56 22.48108 -74.74100 33991 ft 466 kts 317°
2026-05-05 07:56 22.53200 -74.78434 33991 ft 466 kts 317°
2026-05-05 07:57 22.58292 -74.82774 33991 ft 466 kts 317°
2026-05-05 07:57 22.63385 -74.87119 33991 ft 466 kts 317°
2026-05-05 07:58 22.68476 -74.91467 33991 ft 466 kts 317°
2026-05-05 07:58 22.73566 -74.95818 33991 ft 466 kts 318°
2026-05-05 07:59 22.78652 -75.00171 33991 ft 466 kts 318°
2026-05-05 07:59 22.83742 -75.04530 33991 ft 466 kts 318°
2026-05-05 08:00 22.88832 -75.08895 33993 ft 466 kts 318°
2026-05-05 08:00 22.93922 -75.13264 33993 ft 466 kts 318°
2026-05-05 08:01 22.99007 -75.17632 33990 ft 466 kts 318°
2026-05-05 08:01 23.04099 -75.22010 33991 ft 467 kts 318°
2026-05-05 08:02 23.09147 -75.26355 33990 ft 466 kts 317°
2026-05-05 08:02 23.14224 -75.30729 33992 ft 465 kts 317°
2026-05-05 08:03 23.19296 -75.35104 33995 ft 465 kts 317°
2026-05-05 08:03 23.24366 -75.39482 33991 ft 465 kts 317°
2026-05-05 08:04 23.29434 -75.43862 33993 ft 465 kts 318°
2026-05-05 08:04 23.34506 -75.48251 33993 ft 466 kts 318°
2026-05-05 08:05 23.39578 -75.52642 34002 ft 466 kts 317°
2026-05-05 08:05 23.44639 -75.57028 33995 ft 464 kts 317°
2026-05-05 08:06 23.49693 -75.61413 33998 ft 464 kts 317°
2026-05-05 08:06 23.54747 -75.65804 33998 ft 464 kts 317°
2026-05-05 08:07 23.59791 -75.70190 33996 ft 464 kts 317°
2026-05-05 08:07 23.64812 -75.74560 33994 ft 464 kts 317°
2026-05-05 08:08 23.69858 -75.78956 33993 ft 464 kts 317°
2026-05-05 08:08 23.74894 -75.83346 33993 ft 460 kts 316°
2026-05-05 08:09 23.79864 -75.87681 33993 ft 455 kts 316°
2026-05-05 08:09 23.84798 -75.91994 33993 ft 454 kts 316°
2026-05-05 08:10 23.88890 -75.95576 33993 ft 454 kts 316°
2026-05-05 08:10 23.93823 -75.99898 33994 ft 454 kts 316°
2026-05-05 08:11 23.98756 -76.04221 33993 ft 454 kts 316°
2026-05-05 08:11 24.04515 -76.09273 33993 ft 454 kts 316°
2026-05-05 08:12 24.08614 -76.12873 33994 ft 454 kts 316°
2026-05-05 08:12 24.13537 -76.17200 33987 ft 453 kts 316°
2026-05-05 08:13 24.18441 -76.21514 33990 ft 452 kts 316°
2026-05-05 08:13 24.23342 -76.25831 33989 ft 452 kts 316°
2026-05-05 08:14 24.28240 -76.30151 33992 ft 452 kts 316°
2026-05-05 08:14 24.33138 -76.34474 33992 ft 452 kts 316°
2026-05-05 08:15 24.38037 -76.38803 33989 ft 452 kts 316°
2026-05-05 08:15 24.42923 -76.43122 33995 ft 449 kts 316°
2026-05-05 08:16 24.47775 -76.47416 33993 ft 447 kts 316°
2026-05-05 08:16 24.52611 -76.51704 33991 ft 447 kts 316°
2026-05-05 08:17 24.57438 -76.55987 33993 ft 446 kts 316°
2026-05-05 08:17 24.62229 -76.60242 33994 ft 446 kts 316°
2026-05-05 08:18 24.67053 -76.64531 33993 ft 446 kts 316°
2026-05-05 08:18 24.71875 -76.68822 33995 ft 446 kts 316°
2026-05-05 08:19 24.76697 -76.73117 33993 ft 445 kts 316°
2026-05-05 08:19 24.81511 -76.77410 33993 ft 445 kts 316°
2026-05-05 08:20 24.86321 -76.81703 33990 ft 445 kts 316°
2026-05-05 08:20 24.91130 -76.86001 33992 ft 445 kts 316°
2026-05-05 08:21 24.95929 -76.90294 33993 ft 444 kts 316°
2026-05-05 08:21 25.00724 -76.94586 33993 ft 444 kts 316°
2026-05-05 08:22 25.05512 -76.98878 33993 ft 443 kts 316°
2026-05-05 08:22 25.10296 -77.03171 33993 ft 443 kts 316°
2026-05-05 08:23 25.15067 -77.07455 33995 ft 442 kts 316°
2026-05-05 08:23 25.19834 -77.11742 33995 ft 442 kts 316°
2026-05-05 08:24 25.24572 -77.16007 33993 ft 442 kts 316°
2026-05-05 08:24 25.29345 -77.20308 33991 ft 443 kts 316°
2026-05-05 08:25 25.34114 -77.24610 33991 ft 442 kts 316°
2026-05-05 08:25 25.38873 -77.28906 33990 ft 442 kts 316°
2026-05-05 08:26 25.43633 -77.33208 33989 ft 442 kts 316°
2026-05-05 08:26 25.48387 -77.37509 33990 ft 442 kts 316°
2026-05-05 08:27 25.53145 -77.41819 33995 ft 442 kts 316°
2026-05-05 08:27 25.57899 -77.46129 33991 ft 442 kts 316°
2026-05-05 08:28 25.62656 -77.50448 33995 ft 442 kts 316°
2026-05-05 08:28 25.67406 -77.54763 33991 ft 442 kts 316°
2026-05-05 08:29 25.72166 -77.59093 33992 ft 442 kts 316°
2026-05-05 08:30 25.79272 -77.65564 34008 ft 440 kts 316°
2026-05-05 08:30 25.83994 -77.69872 33997 ft 439 kts 316°
2026-05-05 08:31 25.88718 -77.74185 33994 ft 439 kts 316°
2026-05-05 08:31 25.93437 -77.78499 33991 ft 440 kts 316°
2026-05-05 08:32 25.98158 -77.82819 33988 ft 440 kts 316°
2026-05-05 08:32 26.02879 -77.87143 34001 ft 440 kts 316°
2026-05-05 08:33 26.07594 -77.91466 34004 ft 439 kts 316°
2026-05-05 08:33 26.12300 -77.95785 33990 ft 438 kts 316°
2026-05-05 08:34 26.16994 -78.00096 33997 ft 436 kts 316°
2026-05-05 08:34 26.21669 -78.04398 33995 ft 436 kts 316°
2026-05-05 08:35 26.26343 -78.08704 33997 ft 436 kts 316°
2026-05-05 08:35 26.30991 -78.12989 34000 ft 436 kts 316°
2026-05-05 08:36 26.35664 -78.17302 33999 ft 436 kts 316°
2026-05-05 08:36 26.40331 -78.21614 34014 ft 435 kts 316°
2026-05-05 08:37 26.44973 -78.25905 34004 ft 432 kts 316°
2026-05-05 08:37 26.49596 -78.30186 34003 ft 432 kts 316°
2026-05-05 08:38 26.54222 -78.34475 34012 ft 432 kts 316°
2026-05-05 08:38 26.58844 -78.38765 34009 ft 432 kts 316°
2026-05-05 08:39 26.63472 -78.43064 34015 ft 432 kts 316°
2026-05-05 08:39 26.68092 -78.47359 33999 ft 432 kts 316°
2026-05-05 08:40 26.72711 -78.51659 34012 ft 431 kts 316°
2026-05-05 08:40 26.77312 -78.55947 34007 ft 429 kts 316°
2026-05-05 08:41 26.81895 -78.60222 34006 ft 429 kts 316°
2026-05-05 08:41 26.86486 -78.64511 34007 ft 429 kts 316°
2026-05-05 08:42 26.91068 -78.68795 34007 ft 429 kts 316°
2026-05-05 08:42 26.95641 -78.73075 34010 ft 427 kts 317°
2026-05-05 08:43 27.00200 -78.77347 34007 ft 427 kts 316°
2026-05-05 08:43 27.04750 -78.81616 34020 ft 426 kts 317°
2026-05-05 08:44 27.09269 -78.85859 34016 ft 422 kts 317°
2026-05-05 08:44 27.13772 -78.90092 34015 ft 422 kts 317°
2026-05-05 08:45 27.18269 -78.94326 34021 ft 422 kts 317°
2026-05-05 08:45 27.22767 -78.98564 34021 ft 422 kts 317°
2026-05-05 08:46 27.27265 -79.02807 34021 ft 422 kts 317°
2026-05-05 08:46 27.31732 -79.07025 34016 ft 422 kts 317°
2026-05-05 08:47 27.36243 -79.11288 34020 ft 420 kts 317°
2026-05-05 08:47 27.40679 -79.15486 34021 ft 420 kts 317°
2026-05-05 08:48 27.45146 -79.19717 34021 ft 420 kts 317°
2026-05-05 08:48 27.49608 -79.23950 34020 ft 419 kts 317°
2026-05-05 08:49 27.54068 -79.28184 34019 ft 419 kts 317°
2026-05-05 08:49 27.58528 -79.32423 34020 ft 419 kts 317°
2026-05-05 08:50 27.62987 -79.36666 34021 ft 419 kts 317°
2026-05-05 08:50 27.67448 -79.40916 34044 ft 419 kts 317°
2026-05-05 08:51 27.71873 -79.45135 34023 ft 415 kts 318°
2026-05-05 08:51 27.76268 -79.49329 34027 ft 413 kts 317°
2026-05-05 08:52 27.80656 -79.53523 34029 ft 413 kts 317°
2026-05-05 08:52 27.85042 -79.57721 34029 ft 413 kts 317°
2026-05-05 08:53 27.89425 -79.61918 34028 ft 413 kts 317°
2026-05-05 08:53 27.93810 -79.66123 34029 ft 413 kts 317°
2026-05-05 08:54 27.98193 -79.70331 34045 ft 413 kts 317°
2026-05-05 08:54 28.02563 -79.74531 34028 ft 411 kts 318°
2026-05-05 08:55 28.06882 -79.78685 34030 ft 410 kts 318°
2026-05-05 08:55 28.11219 -79.82860 34031 ft 408 kts 318°
2026-05-05 08:56 28.15529 -79.87016 34033 ft 406 kts 318°
2026-05-05 08:56 28.19831 -79.91170 34034 ft 407 kts 318°
2026-05-05 08:57 28.24137 -79.95331 34033 ft 407 kts 318°
2026-05-05 08:57 28.28440 -79.99494 34034 ft 406 kts 318°
2026-05-05 08:58 28.32739 -80.03657 34032 ft 405 kts 318°
2026-05-05 08:58 28.37019 -80.07805 34031 ft 405 kts 318°
2026-05-05 08:59 28.41297 -80.11956 34031 ft 405 kts 318°
2026-05-05 08:59 28.44886 -80.15442 34034 ft 405 kts 318°
2026-05-05 09:00 28.49852 -80.20272 34027 ft 404 kts 318°
2026-05-05 09:00 28.53391 -80.23720 34026 ft 403 kts 318°
2026-05-05 09:01 28.57647 -80.27868 34027 ft 403 kts 318°
2026-05-05 09:01 28.61898 -80.32016 34045 ft 403 kts 318°
2026-05-05 09:02 28.66140 -80.36159 34016 ft 401 kts 319°
2026-05-05 09:02 28.70247 -80.40430 34023 ft 400 kts 312°
2026-05-05 09:03 28.73596 -80.45500 34022 ft 401 kts 307°
2026-05-05 09:03 28.76715 -80.50788 34027 ft 402 kts 306°
2026-05-05 09:04 28.79785 -80.56112 34027 ft 402 kts 305°
2026-05-05 09:04 28.82880 -80.61442 34045 ft 403 kts 307°
2026-05-05 09:05 28.86592 -80.66195 34042 ft 402 kts 318°
2026-05-05 09:05 28.91294 -80.69672 34045 ft 406 kts 331°
2026-05-05 09:06 28.96487 -80.72244 34050 ft 405 kts 334°
2026-05-05 09:06 29.01661 -80.74605 34048 ft 403 kts 334°
2026-05-05 09:07 29.06863 -80.76983 34053 ft 403 kts 334°
2026-05-05 09:07 29.12054 -80.79392 34052 ft 403 kts 333°
2026-05-05 09:08 29.17243 -80.81817 34061 ft 403 kts 333°
2026-05-05 09:08 29.22433 -80.84248 34062 ft 403 kts 333°
2026-05-05 09:09 29.27616 -80.86677 34069 ft 401 kts 333°
2026-05-05 09:09 29.32774 -80.89095 34060 ft 401 kts 333°
2026-05-05 09:10 29.37943 -80.91523 34046 ft 401 kts 333°
2026-05-05 09:10 29.43120 -80.93957 34061 ft 402 kts 333°
2026-05-05 09:11 29.48296 -80.96392 34062 ft 402 kts 333°
2026-05-05 09:11 29.53474 -80.98831 34092 ft 402 kts 333°
2026-05-05 09:12 29.58616 -81.01253 34058 ft 399 kts 333°
2026-05-05 09:12 29.63574 -81.03594 34060 ft 398 kts 333°
2026-05-05 09:13 29.68695 -81.06014 34066 ft 399 kts 333°
2026-05-05 09:13 29.73832 -81.08445 34065 ft 399 kts 333°
2026-05-05 09:14 29.78966 -81.10876 34067 ft 399 kts 333°
2026-05-05 09:14 29.83809 -81.13862 34074 ft 394 kts 324°
2026-05-05 09:15 29.88374 -81.17362 34069 ft 393 kts 323°
2026-05-05 09:15 29.92841 -81.20924 34072 ft 393 kts 323°
2026-05-05 09:16 29.97340 -81.24526 34074 ft 393 kts 323°
2026-05-05 09:16 30.01841 -81.28117 34073 ft 394 kts 323°
2026-05-05 09:17 30.06352 -81.31710 34071 ft 394 kts 323°
2026-05-05 09:17 30.10868 -81.35309 34073 ft 394 kts 323°
2026-05-05 09:18 30.15369 -81.38899 34073 ft 393 kts 323°
2026-05-05 09:18 30.19861 -81.42489 34070 ft 392 kts 323°
2026-05-05 09:19 30.24349 -81.46079 34074 ft 392 kts 323°
2026-05-05 09:19 30.28834 -81.49671 34069 ft 391 kts 322°
2026-05-05 09:20 30.33315 -81.53264 34069 ft 392 kts 322°
2026-05-05 09:20 30.37796 -81.56862 34063 ft 392 kts 322°
2026-05-05 09:21 30.42284 -81.60469 34061 ft 392 kts 322°
2026-05-05 09:21 30.46769 -81.64078 34066 ft 392 kts 322°
2026-05-05 09:22 30.51253 -81.67691 34058 ft 393 kts 323°
2026-05-05 09:22 30.55723 -81.71296 34064 ft 394 kts 323°
2026-05-05 09:23 30.60227 -81.74933 34065 ft 394 kts 323°
2026-05-05 09:23 30.64654 -81.78684 34070 ft 394 kts 320°
2026-05-05 09:24 30.68938 -81.82642 34096 ft 393 kts 320°
2026-05-05 09:24 30.73194 -81.86632 34066 ft 391 kts 319°
2026-05-05 09:24 30.75308 -81.88605 33500 ft 389 kts 319°
2026-05-05 09:25 30.77436 -81.90586 32314 ft 397 kts 319°
2026-05-05 09:25 30.79633 -81.92627 31169 ft 408 kts 318°
2026-05-05 09:25 30.81868 -81.94699 30512 ft 414 kts 318°
2026-05-05 09:25 30.84141 -81.96806 30194 ft 422 kts 318°
2026-05-05 09:26 30.86446 -81.98943 30109 ft 427 kts 318°
2026-05-05 09:26 30.91104 -82.03262 30108 ft 428 kts 318°
2026-05-05 09:27 30.95762 -82.07587 30084 ft 428 kts 318°
2026-05-05 09:27 31.00419 -82.11921 30140 ft 428 kts 318°
2026-05-05 09:28 31.05082 -82.16269 30102 ft 431 kts 317°
2026-05-05 09:28 31.09776 -82.20649 30088 ft 432 kts 317°
2026-05-05 09:29 31.14469 -82.25033 30092 ft 432 kts 317°
2026-05-05 09:29 31.19155 -82.29415 30078 ft 432 kts 317°
2026-05-05 09:30 31.23841 -82.33805 30087 ft 432 kts 317°
2026-05-05 09:30 31.28526 -82.38199 30089 ft 432 kts 317°
2026-05-05 09:31 31.33212 -82.42600 30082 ft 432 kts 317°
2026-05-05 09:31 31.37900 -82.47008 30079 ft 432 kts 317°
2026-05-05 09:32 31.42585 -82.51420 30064 ft 432 kts 317°
2026-05-05 09:32 31.47273 -82.55840 30064 ft 432 kts 317°
2026-05-05 09:33 31.51953 -82.60259 30063 ft 432 kts 317°
2026-05-05 09:33 31.56633 -82.64684 30062 ft 432 kts 317°
2026-05-05 09:34 31.61284 -82.69087 30065 ft 433 kts 317°
2026-05-05 09:34 31.65986 -82.73546 30045 ft 436 kts 317°
2026-05-05 09:34 31.68342 -82.75783 29699 ft 436 kts 317°
2026-05-05 09:35 31.70700 -82.78022 29157 ft 436 kts 317°
2026-05-05 09:35 31.75390 -82.82481 28081 ft 432 kts 317°
2026-05-05 09:35 31.77718 -82.84694 27561 ft 430 kts 317°
2026-05-05 09:36 31.80067 -82.86856 27045 ft 429 kts 320°
2026-05-05 09:36 31.82471 -82.88932 26564 ft 428 kts 321°
2026-05-05 09:36 31.84892 -82.90952 26055 ft 427 kts 321°
2026-05-05 09:36 31.87323 -82.92954 25575 ft 426 kts 322°
2026-05-05 09:37 31.89749 -82.94950 25118 ft 425 kts 322°
2026-05-05 09:37 31.92162 -82.96945 24662 ft 424 kts 322°
2026-05-05 09:37 31.94571 -82.98948 24201 ft 423 kts 322°
2026-05-05 09:37 31.96972 -83.00954 23746 ft 422 kts 322°
2026-05-05 09:38 31.99361 -83.02956 23222 ft 421 kts 322°
2026-05-05 09:38 32.01742 -83.04957 22693 ft 420 kts 322°
2026-05-05 09:38 32.04118 -83.06955 22168 ft 419 kts 322°
2026-05-05 09:38 32.06484 -83.08947 21669 ft 417 kts 322°
2026-05-05 09:39 32.08842 -83.10933 21181 ft 416 kts 322°
2026-05-05 09:39 32.11194 -83.12914 20682 ft 415 kts 322°
2026-05-05 09:39 32.13537 -83.14889 20195 ft 414 kts 322°
2026-05-05 09:39 32.15877 -83.16863 19710 ft 412 kts 321°
2026-05-05 09:40 32.18202 -83.18826 19253 ft 411 kts 322°
2026-05-05 09:40 32.20525 -83.20788 18791 ft 410 kts 322°
2026-05-05 09:40 32.22837 -83.22741 18318 ft 409 kts 322°
2026-05-05 09:40 32.25147 -83.24694 17785 ft 408 kts 322°
2026-05-05 09:41 32.27444 -83.26636 17260 ft 406 kts 322°
2026-05-05 09:41 32.29739 -83.28579 16740 ft 404 kts 322°
2026-05-05 09:41 32.32019 -83.30511 16234 ft 403 kts 322°
2026-05-05 09:41 32.34291 -83.32438 15735 ft 401 kts 322°
2026-05-05 09:42 32.36558 -83.34360 15217 ft 400 kts 322°
2026-05-05 09:42 32.38813 -83.36272 14724 ft 398 kts 322°
2026-05-05 09:42 32.41033 -83.38157 14261 ft 397 kts 322°
2026-05-05 09:42 32.43274 -83.40060 13792 ft 396 kts 322°
2026-05-05 09:43 32.45506 -83.41958 13276 ft 395 kts 322°
2026-05-05 09:43 32.47733 -83.43852 12766 ft 393 kts 322°
2026-05-05 09:43 32.49944 -83.45735 12261 ft 391 kts 322°
2026-05-05 09:43 32.52153 -83.47616 11762 ft 389 kts 322°
2026-05-05 09:44 32.54345 -83.49484 11300 ft 387 kts 323°
2026-05-05 09:44 32.56520 -83.51340 11096 ft 385 kts 323°
2026-05-05 09:44 32.58694 -83.53195 11065 ft 385 kts 323°
2026-05-05 09:44 32.60864 -83.55047 11064 ft 384 kts 323°
2026-05-05 09:45 32.63030 -83.56896 11060 ft 383 kts 323°
2026-05-05 09:45 32.65189 -83.58741 11065 ft 382 kts 323°
2026-05-05 09:45 32.67346 -83.60586 11061 ft 382 kts 323°
2026-05-05 09:45 32.69501 -83.62430 11078 ft 382 kts 323°
2026-05-05 09:46 32.71658 -83.64274 11074 ft 382 kts 323°
2026-05-05 09:46 32.73817 -83.66124 11074 ft 383 kts 323°
2026-05-05 09:46 32.75975 -83.67977 11074 ft 384 kts 322°
2026-05-05 09:46 32.78141 -83.69838 11068 ft 384 kts 322°
2026-05-05 09:47 32.80304 -83.71697 11066 ft 384 kts 322°
2026-05-05 09:47 32.82468 -83.73558 11061 ft 384 kts 322°
2026-05-05 09:47 32.83903 -83.74789 11070 ft 384 kts 322°
2026-05-05 09:47 32.86801 -83.77273 11064 ft 384 kts 322°
2026-05-05 09:48 32.88239 -83.78508 11061 ft 384 kts 322°
2026-05-05 09:48 32.90400 -83.80370 11061 ft 384 kts 322°
2026-05-05 09:48 32.92563 -83.82237 10959 ft 384 kts 322°
2026-05-05 09:48 32.94724 -83.84102 10603 ft 383 kts 322°
2026-05-05 09:49 32.96881 -83.85962 10251 ft 382 kts 323°
2026-05-05 09:49 32.99028 -83.87815 9898 ft 381 kts 323°
2026-05-05 09:49 33.01165 -83.89661 9521 ft 379 kts 322°
2026-05-05 09:49 33.03292 -83.91498 9134 ft 376 kts 322°
2026-05-05 09:50 33.05401 -83.93323 8736 ft 372 kts 322°
2026-05-05 09:50 33.07478 -83.95120 8368 ft 368 kts 322°
2026-05-05 09:50 33.09541 -83.96904 7985 ft 366 kts 322°
2026-05-05 09:50 33.11596 -83.98683 7614 ft 364 kts 322°
2026-05-05 09:51 33.13639 -84.00453 7256 ft 362 kts 322°
2026-05-05 09:51 33.15671 -84.02216 6897 ft 360 kts 322°
2026-05-05 09:51 33.17692 -84.03970 6538 ft 358 kts 322°
2026-05-05 09:51 33.19701 -84.05714 6173 ft 356 kts 322°
2026-05-05 09:52 33.21698 -84.07452 5787 ft 354 kts 322°
2026-05-05 09:52 33.23792 -84.08985 5404 ft 355 kts 335°
2026-05-05 09:52 33.26148 -84.09878 5036 ft 354 kts 343°
2026-05-05 09:52 33.28539 -84.10558 4665 ft 352 kts 345°
2026-05-05 09:53 33.30927 -84.11206 4300 ft 351 kts 345°
2026-05-05 09:53 33.33306 -84.11849 4051 ft 350 kts 345°
2026-05-05 09:53 33.35684 -84.12479 4039 ft 350 kts 345°
2026-05-05 09:53 33.38055 -84.13117 4014 ft 350 kts 345°
2026-05-05 09:54 33.40436 -84.13751 4045 ft 350 kts 346°
2026-05-05 09:54 33.42808 -84.14374 4040 ft 350 kts 346°
2026-05-05 09:54 33.45186 -84.14995 3990 ft 350 kts 345°
2026-05-05 09:54 33.47557 -84.15627 4037 ft 349 kts 346°
2026-05-05 09:55 33.49934 -84.16250 4036 ft 349 kts 345°
2026-05-05 09:55 33.52276 -84.16879 4009 ft 350 kts 345°
2026-05-05 09:55 33.54626 -84.17501 4012 ft 336 kts 346°
2026-05-05 09:55 33.56829 -84.18074 4009 ft 313 kts 346°
2026-05-05 09:56 33.58901 -84.18620 3882 ft 298 kts 345°
2026-05-05 09:56 33.60892 -84.19157 3626 ft 288 kts 345°
2026-05-05 09:56 33.62620 -84.19823 3411 ft 279 kts 330°
2026-05-05 09:56 33.64037 -84.21288 3157 ft 265 kts 301°
2026-05-05 09:57 33.64660 -84.23277 3011 ft 248 kts 276°
2026-05-05 09:57 33.64720 -84.25263 2992 ft 231 kts 265°
2026-05-05 09:57 33.64668 -84.27122 3008 ft 212 kts 266°
2026-05-05 09:57 33.64677 -84.28788 2954 ft 188 kts 267°
2026-05-05 09:58 33.64683 -84.30274 2743 ft 173 kts 266°
2026-05-05 09:58 33.64684 -84.31670 2491 ft 160 kts 266°
2026-05-05 09:58 33.64683 -84.32945 2279 ft 147 kts 266°
2026-05-05 09:58 33.64681 -84.34144 2097 ft 142 kts 266°
2026-05-05 09:59 33.64680 -84.35328 1905 ft 141 kts 266°
2026-05-05 09:59 33.64690 -84.36507 1674 ft 143 kts 268°
2026-05-05 09:59 33.64700 -84.37722 1482 ft 147 kts 268°
2026-05-05 09:59 33.64689 -84.38955 1294 ft 149 kts 269°
2026-05-05 10:00 33.64681 -84.40167 1114 ft 149 kts 268°
2026-05-05 10:00 33.64677 -84.41387 1013 ft 133 kts 272°
2026-05-05 10:00 33.64678 -84.42170 1007 ft 59 kts 269°
2026-05-05 10:00 33.64650 -84.42502 1008 ft 29 kts 245°
2026-05-05 10:01 33.64575 -84.42603 1009 ft 10 kts 186°
2026-05-05 10:01 33.64542 -84.42540 1010 ft 10 kts 93°
2026-05-05 10:01 33.64542 -84.42447 1009 ft 13 kts 90°
2026-05-05 10:01 33.64541 -84.42330 1009 ft 16 kts 90°
2026-05-05 10:02 33.64513 -84.42242 1010 ft 7 kts 158°
2026-05-05 10:02 33.64433 -84.42235 1010 ft 17 kts 179°
2026-05-05 10:02 33.64308 -84.42236 1010 ft 19 kts 181°
2026-05-05 10:02 33.64164 -84.42239 1010 ft 22 kts 180°
2026-05-05 10:03 33.63999 -84.42240 1010 ft 25 kts 181°
2026-05-05 10:03 33.63849 -84.42233 1010 ft 16 kts 174°
2026-05-05 10:03 33.63800 -84.42176 1010 ft 10 kts 98°
2026-05-05 10:03 33.63800 -84.42081 1010 ft 8 kts 88°
2026-05-05 10:04 33.63800 -84.42054 1010 ft 0 kts 89°